Regional Weather Roundup
Issued by NWS Glasgow, MT

Home | Current Version | Previous Version | Text Only | Print | Product List | Glossary On
Versions: 1 2 3 4 5 6 7 8 9 10 11 12 13 14 15 16 17 18 19 20 21 22 23 24 25 26 27 28
000
ASUS45 KGGW 221915
RWRGGW
HOURLY REGIONAL WEATHER ROUNDUP FOR NORTHEAST MONTANA
NATIONAL WEATHER SERVICE GLASGOW MONTANA
100 PM MDT SAT JUL 22 2017

NOTE: "FAIR" INDICATES FEW OR NO CLOUDS BELOW 12,000 FEET WITH NO
SIGNIFICANT WEATHER AND/OR OBSTRUCTIONS TO VISISBILITY.

NORTHEAST MONTANA


CITY           SKY/WX    TMP DP  RH WIND       PRES   REMARKS
GLASGOW        SUNNY     81  47  30 W12G21    30.06S
PLENTYWOOD       N/A     76  44  32 NW13G24     N/A
WOLF POINT     SUNNY     84  45  25 NW15G28   30.04F
JORDAN           N/A     86  39  19 MISG      30.08F
WINNETT          N/A     85  37  18 S3G12       N/A
SIDNEY         SUNNY     82  46  28 NW17G30   30.02S
GLENDIVE       SUNNY     83  45  26 NW20G33   30.05F
MALTA            N/A     84  49  29 NW8         N/A
SCOBEY           N/A     76  46  34 NW13G22   30.04R

FORT PECK REPORTS


CITY           SKY/WX    TMP DP  RH WIND       PRES   REMARKS
FORT PECK        N/A     81  51  35 W15         N/A
THE PINES        N/A     84  41  21 NW8G16      N/A

SOUTHEAST MONTANA


CITY           SKY/WX    TMP DP  RH WIND       PRES   REMARKS
BILLINGS       MOSUNNY   82  27  13 SW6       30.14F
MILES CITY     SUNNY     87  37  17 VRB7      30.08F
BAKER          SUNNY     85  37  18 NW17G26   30.09S
LIVINGSTON     SUNNY     85  27  12 NW14      30.19F

CENTRAL MONTANA


CITY           SKY/WX    TMP DP  RH WIND       PRES   REMARKS
HAVRE          SUNNY     81  42  25 VRB5      30.08F
LEWISTOWN      SUNNY     79  34  19 VRB7      30.16F
GREAT FALLS    SUNNY     82  30  15 SW7G18    30.14F
CUT BANK       SUNNY     82  40  22 W17       30.12F
HELENA         SUNNY     85  30  13 W17       30.16F
BUTTE          SUNNY     78  20  11 VRB6      30.29F
BOZEMAN        SUNNY     81  29  15 N6        30.22F

WESTERN MONTANA


CITY           SKY/WX    TMP DP  RH WIND       PRES   REMARKS
MISSOULA       SUNNY     81  34  18 VRB3      30.20F
KALISPELL      NOT AVBL

NORTH DAKOTA


CITY           SKY/WX    TMP DP  RH WIND       PRES   REMARKS
WILLISTON      SUNNY     81  49  32 NW22      30.01S
DICKINSON      SUNNY     85  45  24 NW25G33   30.00S
MINOT          PTSUNNY   81  51  35 NW23      29.93R
BISMARCK       SUNNY     89  46  22 NW17G30   29.93F

SOUTHERN SASKATCHEWAN


CITY           SKY/WX    TMP DP  RH WIND       PRES   REMARKS
REGINA         PTSUNNY   75  52  43 NW22G29   30.01R
ESTEVAN        PTSUNNY   75  55  50 NW17      29.99R
SWIFT CURRENT  MOSUNNY   73  50  43 NW12G21   30.06F





USA.gov is the U.S. government's official web portal to all federal, state and local government web resources and services.